Location: Bratislava
(48.1500°N, 17.1170°E)
Time: 07:10:02
(UTC+02:00)

N. Korean satellite - Pass Details

Date: 31 January 2019
Orbit: 457 x 508 km, 97.2° (Epoch: 18 April)

Event Time Altitude Azimuth Distance (km) Brightness Sun altitude
Rises 18:14:14 0° 206° (SSW) 2,600 10.8 -14.3°
Reaches altitude 10° 18:16:54 10° 227° (SW) 1,725 10.2 -14.8°
Maximum altitude 18:19:22 17° 269° (W) 1,355 9.9 -15.2°
Drops below altitude 10° 18:21:52 10° 311° (NW) 1,738 9.9 -15.6°
Sets 18:24:34 0° 332° (NNW) 2,629 10.6 -16.0°
